Regional Weather Roundup
Issued by NWS State College, PA

Home | Current Version | Previous Version | Text Only | Print | Product List | Glossary On
Versions: 1 2 3 4 5 6 7 8 9 10 11 12 13 14 15 16 17 18 19 20 21 22 23 24 25 26 27 28 29 30 31 32 33 34 35 36 37 38 39 40 41 42 43 44 45 46 47 48 49 50
806
ASUS41 KCTP 051710
RWRCTP

REGIONAL WEATHER ROUNDUP
NATIONAL WEATHER SERVICE STATE COLLEGE PA
1200 PM EST MON DEC 05 2016

Note: "fair" indicates few or no clouds below 12,000 feet with no
significant weather and/or obstructions to visibility.

* = STATION THAT DOES NOT REPORT PRECIPITATION /E.G. RAIN...SNOW...ETC/
    THUNDER OR FOG.

PAZ002>004-007>009-013>016-020>023-029>032-051800-
WESTERN PENNSYLVANIA

CITY           SKY/WX    TMP DP  RH WIND       PRES   REMARKS
ERIE           CLOUDY    42  31  64 W14G23    30.02F
MEADVILLE      CLOUDY    37  31  78 SW10      30.02S
FRANKLIN*        N/A     37  28  70 W12       30.03S
NEW CASTLE     CLOUDY    39  31  72 W9        30.07S
BEAVER COUNTY  CLOUDY    37  30  75 W9        30.07S
BUTLER*        PTSUNNY   39  28  65 W8        30.08S
PITTSBURGH INT PTSUNNY   41  30  65 NW10      30.07F
PITTSBURGH     CLOUDY    39  28  64 NW6       30.06F
INDIANA*       CLOUDY    39  32  75 W13       30.07S
LATROBE        CLOUDY    41  32  70 NW9       30.07S
WASHINGTON CO* CLOUDY    39  28  65 NW6       30.08F
$$

PAZ004>006-010>012-017>019-024>028-033>037-041-042-045-046-049>053-051800-
CENTRAL PENNSYLVANIA

CITY           SKY/WX    TMP DP  RH WIND       PRES   REMARKS
BRADFORD       CLOUDY    34  31  88 W9G18     29.96F
DUBOIS         CLOUDY    36  30  79 W8G18     29.99S
CLEARFIELD     CLOUDY    39  30  70 W8        30.00F
JOHNSTOWN      CLOUDY    36  30  79 W8        29.99R
ALTOONA        MOSUNNY   42  32  67 W12G20    30.01R
STATE COLLEGE  PTSUNNY   39  30  70 W17G23    29.99S
WILLIAMSPORT   PTSUNNY  N/A N/A N/A W13       29.96F
SELINSGROVE    PTSUNNY   45  38  76 W12       29.99F
FT INDIANTOWN  PTSUNNY   43  43 100 SW5       29.99F
CAPITAL CITY   PTSUNNY   47  39  74 NW5       30.00F
HARRISBURG     PTSUNNY   45  41  86 W3        30.00F
YORK           PTSUNNY   48  41  76 VRB7      29.99F
$$

PAZ038>040-043-044-047-048-054-055-060>062-067>071-051800-
EASTERN PENNSYLVANIA

CITY           SKY/WX    TMP DP  RH WIND       PRES   REMARKS
SCRANTON       CLOUDY    40  36  86 SW13      29.94F
MOUNT POCONO   CLOUDY    35  31  85 W12G24    29.90F
ALLENTOWN      CLOUDY    42  37  82 W8        29.99F
QUAKERTOWN*    PTSUNNY   43  39  87 W7        29.99F
READING        PTSUNNY   46  38  73 NW10      30.00R
LANCASTER      PTSUNNY   47  41  80 NW8       30.00F
COATESVILLE    MOSUNNY   45  39  81 NW9       30.00S
POTTSTOWN      PTSUNNY   45  40  82 NW7       30.01F
BLUE BELL      MOSUNNY   45  41  87 W7        29.98F
DOYLESTOWN     PTSUNNY   47  41  80 W7        29.98F
WILLOW GROVE   NOT AVBL
NORTH PHILA    PTSUNNY   48  41  76 W9        30.01F
PHILADELPHIA   MOSUNNY   46  40  79 W8        30.00F
$$




USA.gov is the U.S. government's official web portal to all federal, state and local government web resources and services.